Maxwell AFB, AL

2:08 AM CST on December 17, 2018 (GMT -0600)
Maxwell Air Force Base

Weather History for KMXF - April, 2018

Change the Weather History Date:

Monday, April 16, 2018

  Actual Average Record
Temperature  
Mean Temperature 48 °F -  
Max Temperature 59 °F 76 °F 87 °F (2006)
Min Temperature 37 °F 53 °F 37 °F (2018)
Degree Days  
Heating Degree Days 17    
Moisture  
Dew Point 34 °F    
Average Humidity 59    
Maximum Humidity 88    
Minimum Humidity 39    
Precipitation  
Precipitation 0.00 in - - ()
Sea Level Pressure  
Sea Level Pressure 30.11 in    
Wind  
Wind Speed 6 mph (West)    
Max Wind Speed 17 mph    
Max Gust Speed 24 mph    
Visibility 10 miles    
Events      
Averages and records for this station are not official NWS values.
T = Trace of Precipitation, MM = Missing Value Source: NWS Daily Summary

Daily Weather History Graph

Daily Weather History Graph

Search for Another Location

Airport or City:

Astronomy

Apr. 16, 2018 Rise Set
Actual Time 6:15 AM CDT 7:15 PM CDT
Civil Twilight 5:49 AM CDT 7:41 PM CDT
Nautical Twilight 5:19 AM CDT 8:11 PM CDT
Astronomical Twilight 4:49 AM CDT 8:42 PM CDT
Moon 6:54 AM CDT (4/16) 8:04 PM CDT (4/16)
Length of Visible Light 13h 51m
Length of Day
13h 00m
New Moon, 0% of the Moon is Illuminated
Apr 16
New Moon
Apr 22
First Quarter
Apr 29
Full
May 7
Last Quarter
May 15
New

Hourly Weather History & Observations

Time (CDT) Temp. Windchill Dew Point Humidity Pressure Visibility Wind Dir Wind Speed Gust Speed Precip Events Conditions
12:56 AM 41.9 °F 39.0 °F 32.2 °F 68% 30.09 in 10.0 mi West 4.6 mph - N/A   Clear
1:56 AM 40.5 °F 37.3 °F 32.5 °F 73% 30.09 in 10.0 mi WSW 4.6 mph - N/A   Clear
2:56 AM 39.2 °F - 33.3 °F 79% 30.08 in 10.0 mi Calm Calm - N/A   Clear
3:56 AM 38.3 °F - 34.0 °F 84% 30.09 in 10.0 mi Calm Calm - N/A   Clear
4:56 AM 37.9 °F - 34.2 °F 86% 30.09 in 10.0 mi Calm Calm - N/A   Clear
5:56 AM 37.0 °F - 33.8 °F 88% 30.09 in 10.0 mi Calm Calm - N/A   Clear
6:56 AM 38.7 °F - 34.9 °F 86% 30.11 in 10.0 mi Calm Calm - N/A   Clear
7:56 AM 41.7 °F 36.1 °F 34.7 °F 76% 30.13 in 10.0 mi WNW 9.2 mph - N/A   Clear
8:56 AM 45.7 °F 38.8 °F 30.4 °F 55% 30.14 in 10.0 mi NW 16.1 mph 19.6 mph N/A   Clear
9:56 AM 47.1 °F - 30.4 °F 52% 30.14 in 10.0 mi WNW 13.8 mph 19.6 mph N/A   Partly Cloudy
10:20 AM 48.2 °F - 30.2 °F 50% 30.14 in 10.0 mi WSW 12.7 mph 19.6 mph N/A   Scattered Clouds
10:22 AM 48.2 °F - 30.2 °F 50% 30.14 in 10.0 mi WNW 12.7 mph 19.6 mph N/A   Scattered Clouds
10:56 AM 49.6 °F - 30.2 °F 47% 30.15 in 10.0 mi West 8.1 mph 21.9 mph N/A   Clear
11:22 AM 51.8 °F - 30.2 °F 44% 30.15 in 10.0 mi WSW 13.8 mph 19.6 mph N/A   Clear
11:25 AM 50.0 °F - 30.2 °F 47% 30.15 in 10.0 mi WNW 17.3 mph 24.2 mph N/A   Clear
11:56 AM 51.1 °F - 30.6 °F 45% 30.14 in 10.0 mi NW 16.1 mph 20.7 mph N/A   Clear
12:56 PM 53.4 °F - 31.5 °F 43% 30.13 in 10.0 mi WNW 13.8 mph 21.9 mph N/A   Clear
1:56 PM 55.2 °F - 32.5 °F 42% 30.11 in 10.0 mi WNW 8.1 mph 18.4 mph N/A   Clear
2:11 PM 55.4 °F - 32.0 °F 41% 30.11 in 10.0 mi West 11.5 mph 20.7 mph N/A   Clear
2:56 PM 56.8 °F - 32.7 °F 40% 30.09 in 10.0 mi West 6.9 mph 20.7 mph N/A   Clear
3:56 PM 57.9 °F - 34.3 °F 41% 30.08 in 10.0 mi WSW 10.4 mph 17.3 mph N/A   Clear
4:56 PM 59.0 °F - 34.2 °F 39% 30.07 in 10.0 mi West 9.2 mph - N/A   Clear
5:56 PM 58.5 °F - 34.2 °F 40% 30.07 in 10.0 mi West 8.1 mph 19.6 mph N/A   Clear
6:56 PM 56.5 °F - 35.4 °F 45% 30.07 in 10.0 mi West 5.8 mph - N/A   Clear
7:56 PM 53.4 °F - 36.7 °F 53% 30.08 in 10.0 mi WNW 3.5 mph - N/A   Clear
8:56 PM 51.6 °F - 38.1 °F 60% 30.10 in 10.0 mi West 4.6 mph - N/A   Clear
9:56 PM 47.7 °F - 39.7 °F 74% 30.11 in 10.0 mi Calm Calm - N/A   Clear
10:56 PM 46.2 °F - 39.4 °F 77% 30.12 in 10.0 mi Calm Calm - N/A   Clear
11:56 PM 44.2 °F - 41.0 °F 88% 30.12 in 10.0 mi Calm Calm - N/A   Clear